Regional Weather Roundup
Issued by NWS

Home | Current Version | Previous Version | Graphics & Text | Print | Product List | Glossary On
Versions: 1 2 3 4 5 6 7 8 9 10 11 12 13 14 15 16 17 18 19 20 21 22 23 24 25 26 27 28 29 30 31 32 33 34 35 36 37 38 39 40 41 42 43 44 45 46 47 48 49 50
000
ASUS45 KBOU 060610
RWRCO

WEATHER ROUNDUP FOR COLORADO
NATIONAL WEATHER SERVICE DENVER/BOULDER CO
1200 AM MDT MON JUL 06 2015

NOTE: "FAIR" INDICATES FEW OR NO CLOUDS BELOW 12000 FEET WITH NO
SIGNIFICANT WEATHER AND/OR OBSTRUCTIONS TO VISIBILITY.

COZ001>005-013-030-031-060700-
...NORTHWEST COLORADO...

CITY           SKY/WX    TMP DP  RH WIND       PRES   REMARKS
CRAIG          PTCLDY    55  52  89 CALM      30.21S
HAYDEN         CLEAR     55  52  88 E7        30.23R
MEEKER         PTCLDY    55  53  93 NE6       30.22R
MOUNT WERNER   NOT AVBL
STEAMBOAT SPGS MOCLDY    53  52  97 CALM      30.24R
WALDEN         CLOUDY    52  50  93 SE3       30.30S
$$

COZ006>008-011-060700-
...WEST CENTRAL VALLEYS...

CITY           SKY/WX    TMP DP  RH WIND       PRES   REMARKS
GRAND JUNCTION CLOUDY    66  59  78 E10       30.11S
MONTROSE       MOCLDY    60  56  86 CALM      30.20S
EAGLE          MOCLDY    61  57  88 CALM      30.25S
RIFLE          PTCLDY    62  58  86 SW3       30.17R
DELTA          MOCLDY    63  60  91 CALM      30.17R
NUCLA          MOCLDY    63  54  72 N5        30.24R
$$

COZ017>023-064>068-060700-
...SOUTHWEST COLORADO...

CITY           SKY/WX    TMP DP  RH WIND       PRES   REMARKS
DURANGO        PTCLDY    64  50  60 W14G20    30.21R
CORTEZ         LGT RAIN  65  55  70 E7        30.20F
PAGOSA SPRINGS PTCLDY    59  51  73 CALM      30.27F
TELLURIDE      PTCLDY    51  50  96 CALM      30.43R
WOLF CREEK PAS NOT AVBL
$$

COZ009-010-012-014-032>034-037-058>063-060700-
...CENTRAL COLORADO...

CITY           SKY/WX    TMP DP  RH WIND       PRES   REMARKS
ASPEN          CLOUDY    55  53  93 SW5       30.30S
BUENA VISTA    MOCLDY    63  47  56 W9        30.28S
COPPER MTN     MOCLDY    46  41  81 S8        30.56F
BERTHOUD PASS  HAZE      37  30  75 NW18      30.57S VSB<1/4
COTTONWOOD PAS NOT AVBL
GUNNISON       MOCLDY    55  48  76 W3        30.33R
KREMMLING      MOCLDY    59  52  77 CALM      30.28R
LEADVILLE      MOCLDY    49  48  97 NE8       30.41F
MONARCH PASS   LGT RAIN  45  43  93 W13       30.67R VSB<1/4
SALIDA         CLOUDY    68  50  53 W12G17    30.32R
SUNLIGHT       MOCLDY    50  46  87 N3        30.53R
WILKERSON PASS CLOUDY    48  41  76 N20G29    30.52F
$$

COZ069>075-060700-
...SAN LUIS VALLEY/SANGRE DE CRISTO MOUNTAINS...

CITY           SKY/WX    TMP DP  RH WIND       PRES   REMARKS
ALAMOSA        MOCLDY    58  55  90 S6        30.28R
LA VETA PASS   CLOUDY    48  43  81 MISG      30.42S
SAGUACHE       CLOUDY    59  52  77 NW13      30.31R
$$

COZ035-036-038>040-060700-
...NORTHERN COLORADO FRONT RANGE...

CITY           SKY/WX    TMP DP  RH WIND       PRES   REMARKS
DENVER INTL AP CLOUDY    65  58  78 NE5       30.11R
DMNS CITY PARK   N/A     65  59  82 N7G13     30.12R
AURORA         MOCLDY    62  61  96 NE6       30.14R
FRONT RANGE AP NOT AVBL
ERIE MUNI ARPT CLOUDY    64  60  85 NE3       30.11R
BOULDER MUN AP CLOUDY    64  63  94 CALM      30.11R
CENTENNIAL     CLOUDY    63  59  87 SE5       30.14R
BROOMFIELD     CLOUDY    63  59  88 NE3       30.14R
FORT COLLINS   MOCLDY    64  59  82 N7        30.11R
LONGMONT       MOCLDY    66  63  91 CALM      30.11R
$$

COZ041-046-047-076>085-087-088-060700-
...PIKES PEAK/PALMER DIVIDE AND SOUTHERN FOOTHILLS...

CITY           SKY/WX    TMP DP  RH WIND       PRES   REMARKS
COLO. SPRINGS  CLOUDY    67  57  70 N22G30    30.12R
A. F. ACADEMY  CLOUDY    62  59  89 N15       30.16R
ELLICOTT       CLOUDY   N/A N/A N/A NE21G31   30.11R
FALCON         CLOUDY    62  55  80 N15G22    30.18R
FORT CARSON    CLOUDY    69  56  61 N17       30.09R
LIMON          CLOUDY    65  58  78 N12       30.10R
MONUMENT HILL  LGT RAIN  57  55  94 MISG      30.22R
TRINIDAD       CLOUDY    69  57  65 NW5       30.08R
$$

COZ042>045-048>051-090-091-060700-
...NORTHEAST COLORADO...

CITY           SKY/WX    TMP DP  RH WIND       PRES   REMARKS
GREELEY ARPT   MOCLDY    66  57  72 N13       30.09R
AKRON          CLOUDY    65  63  93 N14       30.04R
BURLINGTON     MOCLDY    69  60  73 N12       29.97R
WRAY           CLOUDY    72  62  71 NW7       30.00R
STERLING       CLOUDY    68  63  83 N15         N/A
HOLYOKE        LGT RAIN  70  63  78 N12G25    29.99R
FORT MORGAN    CLOUDY    66  58  75 N20       30.05R
$$

COZ086-089-092>099-060700-
...SOUTHEAST COLORADO...

CITY           SKY/WX    TMP DP  RH WIND       PRES   REMARKS
PUEBLO         CLOUDY    76  56  49 NE9       30.02R
LA JUNTA       RAIN      69  62  78 NW17G26   30.01R
LAMAR          MOCLDY    77  58  51 N14       29.88R
SPRINGFIELD      N/A     73  60  63 S14       29.94S
$$



USA.gov is the U.S. government's official web portal to all federal, state and local government web resources and services.